******************************************************************************* JPL/HORIZONS 35396 (1997 XF11) 2025-Dec-12 21:13:14 Rec #: 35396 (+COV) Soln.date: 2025-Dec-03_05:29:20 # obs: 2578 (1990-2025) IAU76/J2000 helio. ecliptic osc. elements (au, days, deg., period=Julian yrs): EPOCH= 2457493.5 ! 2016-Apr-15.00 (TDB) Residual RMS= .28545 EC= .4839058524577884 QR= .7445241228320811 TP= 2457590.7575604562 OM= 213.7676778576442 W= 102.9348578827193 IN= 4.099004210177846 A= 1.442612992954325 MA= 304.6773867285299 ADIST= 2.14070186307657 PER= 1.73274 N= .568825837 ANGMOM= .018081065 DAN= 1.23901 DDN= .99683 L= 316.7345879 B= 3.9948217 MOID= .00052827 TP= 2016-Jul-21.2575604562 Asteroid physical parameters (km, seconds, rotational period in hours): GM= n.a. RAD= .352 ROTPER= 3.259 H= 17.01 G= .150 B-V= n.a. ALBEDO= .772 STYP= Xk ASTEROID comments: 1: soln ref.= JPL#398, PHA OCC=0 radar( 5 delay, 1 Dop.) 2: source=ORB ******************************************************************************* ******************************************************************************* Ephemeris / WWW_USER Fri Dec 12 21:13:14 2025 Pasadena, USA / Horizons ******************************************************************************* Target body name: 35396 (1997 XF11) {source: JPL#398} Center body name: Earth (399) {source: DE441} Center-site name: GEOCENTRIC ******************************************************************************* Start time : A.D. 2028-Oct-26 06:44:00.0000 UT Stop time : A.D. 2028-Oct-27 00:00:00.0000 UT Step-size : 1440 minutes ******************************************************************************* Target pole/equ : undefined Target radii : 0.352 km Center geodetic : 0.0, 0.0, -6378.137 {E-lon(deg),Lat(deg),Alt(km)} Center cylindric: 0.0, 0.0, 0.0 {E-lon(deg),Dxy(km),Dz(km)} Center pole/equ : ITRF93 {East-longitude positive} Center radii : 6378.137, 6378.137, 6356.752 km {Equator_a, b, pole_c} Target primary : Sun Vis. interferer : MOON (R_eq= 1737.400) km {source: DE441} Rel. light bend : Sun {source: DE441} Rel. lght bnd GM: 1.3271E+11 km^3/s^2 Small-body perts: Yes {source: SB441-N16} Atmos refraction: NO (AIRLESS) RA format : HMS Time format : CAL Calendar mode : Mixed Julian/Gregorian EOP file : eop.251212.p260310 EOP coverage : DATA-BASED 1962-JAN-20 TO 2025-DEC-12. PREDICTS-> 2026-MAR-09 Units conversion: 1 au= 149597870.700 km, c= 299792.458 km/s, 1 day= 86400.0 s Table cut-offs 1: Elevation (-90.0deg=NO ),Airmass (>38.000=NO), Daylight (NO ) Table cut-offs 2: Solar elongation ( 0.0,180.0=NO ),Local Hour Angle( 0.0=NO ) Table cut-offs 3: RA/DEC angular rate ( 0.0=NO ) ******************************************************************************* Initial IAU76/J2000 heliocentric ecliptic osculating elements (au, days, deg.): EPOCH= 2457493.5 ! 2016-Apr-15.00 (TDB) Residual RMS= .28545 EC= .4839058524577884 QR= .7445241228320811 TP= 2457590.7575604562 OM= 213.7676778576442 W= 102.9348578827193 IN= 4.099004210177846 Equivalent ICRF heliocentric cartesian coordinates (au, au/d): X=-1.235745790409909E+00 Y=-5.044978259362508E-01 Z=-2.362204585811657E-01 VX= 1.212789861879332E-02 VY=-8.784566876937712E-03 VZ=-2.689255697982321E-03 Asteroid physical parameters (km, seconds, rotational period in hours): GM= n.a. RAD= .352 ROTPER= 3.259 H= 17.01 G= .150 B-V= n.a. ALBEDO= .772 STYP= Xk ******************************************************************************* Date__(UT)__HR:MN delta deldot RNG_3sigma RNGRT_3sig ************************************************************************** $$SOE 2028-Oct-26 06:44 0.00621088727557 0.0191233 20.2831 0.0000004 $$EOE ******************************************************************************* Column meaning: TIME Times PRIOR to 1962 are UT1, a mean-solar time closely related to the prior but now-deprecated GMT. Times AFTER 1962 are in UTC, the current civil or "wall-clock" time-scale. UTC is kept within 0.9 seconds of UT1 using integer leap-seconds for 1972 and later years. Conversion from the internal Barycentric Dynamical Time (TDB) of solar system dynamics to the non-uniform civil UT time-scale requested for output has not been determined for UTC times after the next July or January 1st. Therefore, the last known leap-second is used as a constant over future intervals. Time tags refer to the UT time-scale conversion from TDB on Earth regardless of observer location within the solar system, although clock rates may differ due to the local gravity field and no analog to "UT" may be defined for that location. Any 'b' symbol in the 1st-column denotes a B.C. date. First-column blank (" ") denotes an A.D. date. CALENDAR SYSTEM Mixed calendar mode was active such that calendar dates after AD 1582-Oct-15 (if any) are in the modern Gregorian system. Dates prior to 1582-Oct-5 (if any) are in the Julian calendar system, which is automatically extended for dates prior to its adoption on 45-Jan-1 BC. The Julian calendar is useful for matching historical dates. The Gregorian calendar more accurately corresponds to the Earth's orbital motion and seasons. A "Gregorian-only" calendar mode is available if such physical events are the primary interest. NOTE: "n.a." in output means quantity "not available" at the print-time. STATISTICAL UNCERTAINTIES Output includes formal +/- 3 standard-deviation statistical orbit uncertainty quantities. There is a 99.7% (1-D) or 98.9% (2-D) chance the actual value is within given bounds. These statistical calculations assume observational data errors are random. If there are systematic biases (such as timing, reduction or star-catalog errors), results can be optimistic. Because the epoch covariance is mapped using linearized variational partial derivatives, results can also be optimistic for times far from the solution epoch, particularly for objects having close planetary encounters. 'delta deldot' = Apparent range ("delta", light-time aberrated) and range-rate ("delta-dot") of the target center relative to the observer. A positive "deldot" means the target center is moving away from the observer, negative indicates movement toward the observer. Units: AU and KM/S 'RNG_3sigma RNGRT_3sig' = Range and range rate (radial velocity) formal 3-standard-deviation uncertainties. Units: KM, KM/S Computations by ... Solar System Dynamics Group, Horizons On-Line Ephemeris System 4800 Oak Grove Drive, Jet Propulsion Laboratory Pasadena, CA 91109 USA General site: https://ssd.jpl.nasa.gov/ Mailing list: https://ssd.jpl.nasa.gov/email_list.html System news : https://ssd.jpl.nasa.gov/horizons/news.html User Guide : https://ssd.jpl.nasa.gov/horizons/manual.html Connect : browser https://ssd.jpl.nasa.gov/horizons/app.html#/x API https://ssd-api.jpl.nasa.gov/doc/horizons.html command-line telnet ssd.jpl.nasa.gov 6775 e-mail/batch https://ssd.jpl.nasa.gov/ftp/ssd/horizons_batch.txt scripts https://ssd.jpl.nasa.gov/ftp/ssd/SCRIPTS Author : Jon.D.Giorgini@jpl.nasa.gov ******************************************************************************* !$$SOF COMMAND = '1997 XF11' QUANTITIES = '20,39' START_TIME = '2028-10-26 06:44' STEP_SIZE = '1 day' STOP_TIME = '2028-10-27'